Overview Statistics Trail Chart Weather Telemetry Raw packets
 

This is the latest recevied weather packets stored in our database for station/object 1NW106. If no packets are shown the sender has not sent any weather packets the latest 10 day(s).

<< 3 4 5 6 7 8 9 >>
Time Temp. Humidity Pressure Rain* Wind** Luminosity Snow
1788412308 28.89° C 81% 1010.6 hPa 19.56 mm - - -
1788411708 29.44° C 80% 1010.8 hPa 19.56 mm - - -
1788411108 29.44° C 83% 1010.6 hPa 19.56 mm - - -
1788410508 28.89° C 88% 1010.1 hPa 19.56 mm - - -
1788409908 28.89° C 89% 1010 hPa 19.56 mm - - -
1788409308 29.44° C 90% 1009.9 hPa 19.56 mm - - -
1788408708 29.44° C 90% 1010.1 hPa 19.56 mm - - -
1788408108 29.44° C 85% 1010.7 hPa 19.56 mm - - -
1788407508 28.89° C 89% 1010.4 hPa 19.56 mm - - -
1788406908 28.89° C 88% 1010.5 hPa 19.56 mm - - -
1788406308 28.33° C 93% 1009.7 hPa 19.56 mm - - -
1788405708 27.22° C 95% 1009.4 hPa 19.56 mm - - -
1788405108 27.22° C 98% 1008.7 hPa 19.56 mm - - -
1788404508 26.67° C 99% 1008.1 hPa 19.56 mm - - -
1788403908 26.11° C 99% 1006.1 hPa 19.56 mm - - -
1788403308 25.56° C 99% 1004.2 hPa 19.56 mm - - -
1788402708 25.56° C 99% 1003.8 hPa 19.56 mm - - -
1788402108 25.56° C 99% 1003.9 hPa 19.56 mm - - -
1788401508 25° C 99% 1004 hPa 19.56 mm - - -
1788400908 25° C 99% 1004.5 hPa 19.56 mm - - -
1788400308 25° C 99% 1004.7 hPa 19.56 mm - - -
1788399708 24.44° C 99% 1004.9 hPa 19.56 mm - - -
1788399108 25° C 99% 1005 hPa 19.56 mm - - -
1788398508 24.44° C 99% 1005.4 hPa 19.56 mm - - -
1788397308 23.89° C 99% 1005.9 hPa 19.56 mm - - -

* Rain latest hour (hover to see other rain measurements)
** Current wind speed in m/s (hover to see current wind gust speed)